Notices

What's New in latest Release from April 7th, 2021:

- Updated Glossary, including Speed of Maximum Gust, and Total Hourly Precipitation

- Updated national and regional climate services offices contacts and prices information

- Addition of station inventory lists for 1981-2010, 1971-2000, and 1961-1990 Normals.

If you haven't already, please take our survey and provide feedback about our website: https://eccc.sondage-survey.ca/f/LanguageSelection.aspx?s=442ca660-fcf1-47c0-95a9-59707d6fd709

Hourly Data Report for January 27, 2006

TORONTO CITY
ONTARIO

43°40'00.000" N
79°24'00.000" W
112.50 m
6158355
71508
XTO

Download Data

Hourly Data (January 2006)
Hourly Data Report for January 27, 2006
TIME
LST
Temp Definition
°C
Dew Point Definition
°C
Rel Hum Definition
%
Precip. Amount Definition
mm

Wind Dir Definition
10's deg

Wind Spd Definition
km/h
Visibility Definition
km
Stn Press Definition
kPa
Hmdx Definition


Wind Chill Definition


Weather Definition


00:00 -7.2 -10.8 75   LegendMM LegendMM   102.05     LegendNANA
01:00 -7.1 -11.1 73   LegendMM LegendMM   102.00     LegendNANA
02:00 -6.6 -10.5 74   LegendMM LegendMM   102.00     LegendNANA
03:00 -6.3 -10.0 75   LegendMM LegendMM   101.98     LegendNANA
04:00 -5.7 -8.6 80   LegendMM LegendMM   101.96     LegendNANA
05:00 -5.5 -8.5 79   LegendMM LegendMM   101.95     LegendNANA
06:00 -5.0 -7.8 81   LegendMM LegendMM   101.90     LegendNANA
07:00 -4.1 -6.3 85   LegendMM LegendMM   101.89     LegendNANA
08:00 -3.2 -5.1 87   LegendMM LegendMM   101.89     LegendNANA
09:00 -2.0 -4.2 85   LegendMM LegendMM   101.88     LegendNANA
10:00 -0.2 -2.9 82   LegendMM LegendMM   101.81     LegendNANA
11:00 1.5 -2.5 75   LegendMM LegendMM   101.73     LegendNANA
12:00 3.0 -1.3 73   LegendMM LegendMM   101.62     LegendNANA
13:00 4.6 -1.3 66   LegendMM LegendMM   101.47     LegendNANA
14:00 4.8 -0.9 67   LegendMM LegendMM   101.35     LegendNANA
15:00 4.6 0.0 72   LegendMM LegendMM   101.30     LegendNANA
16:00 4.3 -0.1 73   LegendMM LegendMM   101.26     LegendNANA
17:00 3.8 0.1 77   LegendMM LegendMM   101.26     LegendNANA
18:00 3.5 0.0 78   LegendMM LegendMM   101.25     LegendNANA
19:00 3.8 -1.7 67   LegendMM LegendMM   101.17     LegendNANA
20:00 3.3 -1.0 73   LegendMM LegendMM   101.10     LegendNANA
21:00 3.3 -1.9 69   LegendMM LegendMM   101.01     LegendNANA
22:00 3.8 -1.9 66   LegendMM LegendMM   100.92     LegendNANA
23:00 3.5 -1.5 70   LegendMM LegendMM   100.87     LegendNANA

Notes on Data Quality.

Legend

  • E = Estimated
  • M = Missing
  • NA = Not Available*
  • [empty] = Indicates an unobserved value
Date modified: